XNO35P EDJA-LSGS

Flight info

Callsign XNO35P
Flight time 0h 46m
Altitude 29000
Route UMTEX2B UMTEX Y100 TRA DCT LUTIX N869 NEMOS/N0398F230 Y58 VADAR
Aircraft A319/M-SDE3FGHIRWY/LB1

Departure

Time 2026-04-27 02:46
Airport Memmingen Allgau Airport (EDJA)

Arrival

Time 2026-04-27 03:32
Airport Sion Airport (LSGS)
Time Latitude Longitude Altitude Speed Heading
2026-04-27 02:42 47.99056 10.24648 2068 ft 24 kts 59°
2026-04-27 02:43 47.99146 10.24874 2065 ft 25 kts 59°
2026-04-27 02:43 47.99201 10.25013 2063 ft 24 kts 59°
2026-04-27 02:43 47.99288 10.25233 2060 ft 26 kts 59°
2026-04-27 02:43 47.99353 10.25401 2057 ft 10 kts 60°
2026-04-27 02:44 47.99386 10.25386 2058 ft 5 kts 291°
2026-04-27 02:44 47.99395 10.25335 2058 ft 6 kts 287°
2026-04-27 02:44 47.99403 10.25271 2059 ft 6 kts 265°
2026-04-27 02:44 47.99387 10.25227 2059 ft 4 kts 236°
2026-04-27 02:45 47.99385 10.25222 2060 ft 0 kts 239°
2026-04-27 02:45 47.99333 10.25088 2062 ft 52 kts 239°
2026-04-27 02:45 47.99004 10.24263 2069 ft 131 kts 239°
2026-04-27 02:46 47.98464 10.22878 2370 ft 163 kts 241°
2026-04-27 02:46 47.97910 10.21387 3151 ft 165 kts 239°
2026-04-27 02:46 47.97338 10.19907 3904 ft 163 kts 239°
2026-04-27 02:46 47.96739 10.18374 4274 ft 181 kts 239°
2026-04-27 02:47 47.96048 10.16661 4542 ft 206 kts 239°
2026-04-27 02:47 47.95273 10.14729 4922 ft 228 kts 240°
2026-04-27 02:47 47.94426 10.12602 5367 ft 249 kts 240°
2026-04-27 02:47 47.93501 10.10286 5866 ft 270 kts 240°
2026-04-27 02:48 47.92553 10.07851 6739 ft 274 kts 244°
2026-04-27 02:48 47.91961 10.05146 7557 ft 276 kts 258°
2026-04-27 02:48 47.91568 10.02326 8428 ft 280 kts 260°
2026-04-27 02:48 47.91224 9.99457 9326 ft 282 kts 261°
2026-04-27 02:49 47.90878 9.96561 10191 ft 286 kts 261°
2026-04-27 02:49 47.90507 9.93587 10700 ft 302 kts 260°
2026-04-27 02:49 47.90080 9.90400 10980 ft 324 kts 259°
2026-04-27 02:49 47.89611 9.87050 11579 ft 333 kts 259°
2026-04-27 02:50 47.89071 9.83671 12328 ft 338 kts 253°
2026-04-27 02:50 47.88244 9.80367 13096 ft 342 kts 251°
2026-04-27 02:50 47.87402 9.77039 13862 ft 345 kts 251°
2026-04-27 02:50 47.86561 9.73678 14539 ft 348 kts 251°
2026-04-27 02:51 47.85714 9.70278 15190 ft 352 kts 251°
2026-04-27 02:51 47.84860 9.66849 15851 ft 355 kts 251°
2026-04-27 02:51 47.84008 9.63388 16509 ft 357 kts 253°
2026-04-27 02:51 47.83446 9.59830 17148 ft 359 kts 262°
2026-04-27 02:52 47.83018 9.56157 17788 ft 362 kts 262°
2026-04-27 02:52 47.82570 9.52406 18435 ft 365 kts 262°
2026-04-27 02:52 47.82122 9.48713 18980 ft 369 kts 262°
2026-04-27 02:52 47.81664 9.44946 19535 ft 372 kts 262°
2026-04-27 02:53 47.81201 9.41145 20096 ft 375 kts 262°
2026-04-27 02:53 47.80733 9.37315 20666 ft 378 kts 262°
2026-04-27 02:53 47.80262 9.33455 21206 ft 381 kts 262°
2026-04-27 02:53 47.79788 9.29565 21747 ft 384 kts 262°
2026-04-27 02:54 47.79312 9.25637 22296 ft 387 kts 262°
2026-04-27 02:54 47.78833 9.21690 22840 ft 390 kts 262°
2026-04-27 02:54 47.78343 9.17701 23362 ft 393 kts 262°
2026-04-27 02:54 47.77846 9.13697 23850 ft 396 kts 262°
2026-04-27 02:55 47.77342 9.09660 24132 ft 398 kts 262°
2026-04-27 02:55 47.76839 9.05626 24201 ft 394 kts 262°
2026-04-27 02:55 47.76343 9.01650 24214 ft 390 kts 262°
2026-04-27 02:55 47.75847 8.97687 24215 ft 389 kts 262°
2026-04-27 02:56 47.75352 8.93738 24215 ft 389 kts 262°
2026-04-27 02:56 47.74854 8.89785 24217 ft 389 kts 262°
2026-04-27 02:56 47.74357 8.85837 24208 ft 389 kts 262°
2026-04-27 02:56 47.73858 8.81889 24217 ft 389 kts 262°
2026-04-27 02:57 47.73358 8.77942 24220 ft 389 kts 262°
2026-04-27 02:57 47.72856 8.74003 24219 ft 389 kts 262°
2026-04-27 02:57 47.72352 8.70060 24220 ft 389 kts 262°
2026-04-27 02:57 47.71846 8.66117 24220 ft 389 kts 262°
2026-04-27 02:58 47.71338 8.62173 24217 ft 388 kts 262°
2026-04-27 02:58 47.70830 8.58234 24216 ft 388 kts 262°
2026-04-27 02:58 47.70322 8.54298 24215 ft 388 kts 262°
2026-04-27 02:58 47.69814 8.50362 24215 ft 388 kts 262°
2026-04-27 02:59 47.69245 8.46445 24207 ft 390 kts 256°
2026-04-27 02:59 47.68252 8.42685 24205 ft 394 kts 246°
2026-04-27 02:59 47.66802 8.39223 24195 ft 397 kts 237°
2026-04-27 02:59 47.65210 8.35942 24194 ft 397 kts 237°
2026-04-27 03:00 47.63597 8.32616 24207 ft 397 kts 237°
2026-04-27 03:00 47.61985 8.29295 24197 ft 397 kts 237°
2026-04-27 03:00 47.60370 8.25969 24198 ft 397 kts 237°
2026-04-27 03:00 47.58756 8.22645 24200 ft 398 kts 237°
2026-04-27 03:01 47.57139 8.19320 24201 ft 398 kts 237°
2026-04-27 03:01 47.55521 8.15998 24202 ft 398 kts 237°
2026-04-27 03:01 47.53903 8.12680 24202 ft 398 kts 237°
2026-04-27 03:01 47.52280 8.09359 24204 ft 398 kts 237°
2026-04-27 03:02 47.50657 8.06042 24198 ft 398 kts 237°
2026-04-27 03:02 47.49038 8.02726 24198 ft 398 kts 237°
2026-04-27 03:02 47.47415 7.99406 24200 ft 398 kts 237°
2026-04-27 03:02 47.45794 7.96095 24201 ft 398 kts 237°
2026-04-27 03:03 47.44168 7.92781 24204 ft 398 kts 237°
2026-04-27 03:03 47.40911 7.86168 24207 ft 398 kts 237°
2026-04-27 03:03 47.39278 7.82862 24208 ft 398 kts 237°
2026-04-27 03:04 47.37647 7.79561 24208 ft 398 kts 237°
2026-04-27 03:04 47.36017 7.76264 24210 ft 398 kts 237°
2026-04-27 03:04 47.34384 7.72959 24211 ft 398 kts 237°
2026-04-27 03:04 47.32751 7.69663 24206 ft 398 kts 236°
2026-04-27 03:05 47.31114 7.66368 24209 ft 398 kts 237°
2026-04-27 03:05 47.29479 7.63081 24212 ft 398 kts 237°
2026-04-27 03:05 47.27842 7.59790 24214 ft 398 kts 237°
2026-04-27 03:05 47.26207 7.56500 24213 ft 398 kts 237°
2026-04-27 03:06 47.24599 7.53263 24209 ft 398 kts 237°
2026-04-27 03:06 47.22967 7.49982 24210 ft 398 kts 237°
2026-04-27 03:06 47.21329 7.46697 24210 ft 398 kts 236°
2026-04-27 03:06 47.19690 7.43421 24204 ft 398 kts 236°
2026-04-27 03:07 47.18047 7.40146 24208 ft 398 kts 236°
2026-04-27 03:07 47.16392 7.36889 24209 ft 399 kts 233°
2026-04-27 03:07 47.14345 7.34126 24214 ft 404 kts 216°
2026-04-27 03:07 47.11792 7.32367 24204 ft 409 kts 198°
2026-04-27 03:08 47.08963 7.31851 24190 ft 414 kts 179°
2026-04-27 03:08 47.06144 7.32677 24185 ft 416 kts 160°
2026-04-27 03:08 47.03629 7.34769 24179 ft 417 kts 140°
2026-04-27 03:08 47.01651 7.37857 24174 ft 417 kts 127°
2026-04-27 03:09 46.99859 7.41199 24178 ft 417 kts 127°
2026-04-27 03:09 46.98068 7.44554 24174 ft 418 kts 127°
2026-04-27 03:09 46.96279 7.47904 24174 ft 418 kts 127°
2026-04-27 03:09 46.94495 7.51235 24058 ft 411 kts 127°
2026-04-27 03:10 46.92740 7.54504 23820 ft 407 kts 128°
2026-04-27 03:10 46.90999 7.57744 23418 ft 404 kts 128°
2026-04-27 03:10 46.89268 7.60959 23003 ft 400 kts 128°
2026-04-27 03:10 46.87576 7.64101 22612 ft 398 kts 128°
2026-04-27 03:11 46.85871 7.67260 22214 ft 395 kts 128°
2026-04-27 03:11 46.84168 7.70401 21821 ft 392 kts 128°
2026-04-27 03:11 46.82481 7.73511 21435 ft 390 kts 128°
2026-04-27 03:11 46.80802 7.76604 21056 ft 387 kts 128°
2026-04-27 03:12 46.79137 7.79670 20678 ft 384 kts 128°
2026-04-27 03:12 46.77481 7.82718 20305 ft 381 kts 128°
2026-04-27 03:12 46.75850 7.85727 19941 ft 377 kts 128°
2026-04-27 03:12 46.74232 7.88708 19577 ft 372 kts 128°
2026-04-27 03:13 46.72634 7.91649 19220 ft 368 kts 128°
2026-04-27 03:13 46.71052 7.94552 18870 ft 364 kts 128°
2026-04-27 03:13 46.69492 7.97434 18528 ft 361 kts 126°
2026-04-27 03:13 46.68263 8.00583 18221 ft 353 kts 111°
2026-04-27 03:14 46.67583 8.03931 18212 ft 338 kts 98°
2026-04-27 03:14 46.67400 8.07253 18218 ft 321 kts 86°
2026-04-27 03:14 46.67671 8.10396 18218 ft 305 kts 74°
2026-04-27 03:14 46.68229 8.13286 18223 ft 290 kts 74°
2026-04-27 03:15 46.68522 8.16133 18216 ft 282 kts 84°
2026-04-27 03:15 46.68473 8.18975 18220 ft 281 kts 95°
2026-04-27 03:15 46.68092 8.21758 18223 ft 282 kts 105°
2026-04-27 03:15 46.67388 8.24425 18216 ft 283 kts 115°
2026-04-27 03:16 46.66395 8.26847 18213 ft 283 kts 125°
2026-04-27 03:16 46.65117 8.29018 18213 ft 283 kts 136°
2026-04-27 03:16 46.63600 8.30838 18212 ft 283 kts 146°
2026-04-27 03:16 46.61892 8.32245 18209 ft 282 kts 156°
2026-04-27 03:17 46.60046 8.33197 18208 ft 282 kts 167°
2026-04-27 03:17 46.58120 8.33678 18207 ft 281 kts 177°
2026-04-27 03:17 46.56175 8.33678 18180 ft 280 kts 187°
2026-04-27 03:17 46.54268 8.33204 18045 ft 277 kts 197°
2026-04-27 03:18 46.52466 8.32277 17921 ft 275 kts 207°
2026-04-27 03:18 46.50807 8.30942 17796 ft 271 kts 217°
2026-04-27 03:18 46.49341 8.29254 17676 ft 268 kts 226°
2026-04-27 03:18 46.48075 8.27279 17425 ft 267 kts 231°
2026-04-27 03:19 46.46873 8.25285 17261 ft 262 kts 231°
2026-04-27 03:19 46.45675 8.23302 17107 ft 262 kts 231°
2026-04-27 03:19 46.44476 8.21319 16994 ft 261 kts 231°
2026-04-27 03:19 46.43289 8.19332 16885 ft 260 kts 232°
2026-04-27 03:20 46.42117 8.17336 16775 ft 259 kts 232°
2026-04-27 03:20 46.40955 8.15343 16663 ft 259 kts 232°
2026-04-27 03:20 46.39794 8.13357 16549 ft 257 kts 232°
2026-04-27 03:20 46.38638 8.11385 16435 ft 257 kts 232°
2026-04-27 03:21 46.37483 8.09413 16329 ft 256 kts 232°
2026-04-27 03:21 46.36340 8.07468 16207 ft 249 kts 232°
2026-04-27 03:21 46.35245 8.05611 16086 ft 235 kts 232°
2026-04-27 03:21 46.34213 8.03856 15909 ft 225 kts 233°
2026-04-27 03:22 46.33247 8.02096 15629 ft 221 kts 236°
2026-04-27 03:22 46.32419 8.00255 15293 ft 217 kts 243°
2026-04-27 03:22 46.31708 7.98322 14839 ft 218 kts 247°
2026-04-27 03:22 46.31140 7.96292 14364 ft 218 kts 254°
2026-04-27 03:23 46.30772 7.94178 13869 ft 215 kts 263°
2026-04-27 03:23 46.30653 7.92033 13355 ft 213 kts 270°
2026-04-27 03:23 46.30632 7.89904 12836 ft 211 kts 271°
2026-04-27 03:23 46.30643 7.87794 12331 ft 209 kts 272°
2026-04-27 03:24 46.30683 7.85698 11845 ft 208 kts 272°
2026-04-27 03:24 46.30742 7.83591 11254 ft 211 kts 273°
2026-04-27 03:24 46.30815 7.81459 10649 ft 215 kts 273°
2026-04-27 03:24 46.30867 7.79272 10076 ft 220 kts 271°
2026-04-27 03:25 46.30876 7.77039 9439 ft 223 kts 269°
2026-04-27 03:25 46.30847 7.74831 8847 ft 218 kts 268°
2026-04-27 03:25 46.30778 7.72659 8223 ft 215 kts 266°
2026-04-27 03:25 46.30693 7.70495 7524 ft 217 kts 266°
2026-04-27 03:26 46.30645 7.68320 6837 ft 219 kts 270°
2026-04-27 03:26 46.30696 7.66127 6117 ft 219 kts 273°
2026-04-27 03:26 46.30795 7.63940 5553 ft 213 kts 274°
2026-04-27 03:26 46.30852 7.61872 5225 ft 199 kts 268°
2026-04-27 03:27 46.30685 7.59967 4954 ft 185 kts 256°
2026-04-27 03:27 46.30252 7.58257 4595 ft 178 kts 245°
2026-04-27 03:27 46.29699 7.56695 4326 ft 170 kts 240°
2026-04-27 03:27 46.29096 7.55274 4075 ft 163 kts 237°
2026-04-27 03:28 46.28494 7.53904 3789 ft 160 kts 239°
2026-04-27 03:28 46.27970 7.52509 3508 ft 156 kts 243°
2026-04-27 03:28 46.27489 7.51122 3252 ft 152 kts 243°
2026-04-27 03:28 46.27021 7.49771 3095 ft 149 kts 243°
2026-04-27 03:29 46.26563 7.48434 2943 ft 148 kts 243°
2026-04-27 03:29 46.26115 7.47101 2819 ft 147 kts 244°
2026-04-27 03:29 46.25666 7.45773 2689 ft 147 kts 243°
2026-04-27 03:29 46.25216 7.44450 2574 ft 146 kts 243°
2026-04-27 03:30 46.24746 7.43142 2462 ft 147 kts 240°
2026-04-27 03:30 46.24241 7.41860 2304 ft 147 kts 242°
2026-04-27 03:30 46.23803 7.40536 2184 ft 146 kts 245°
2026-04-27 03:30 46.23408 7.39185 2089 ft 146 kts 247°
2026-04-27 03:31 46.23051 7.37813 2023 ft 146 kts 251°
2026-04-27 03:31 46.22736 7.36415 1950 ft 147 kts 251°
2026-04-27 03:31 46.22430 7.35006 1788 ft 147 kts 252°
2026-04-27 03:31 46.22128 7.33603 1586 ft 142 kts 252°
2026-04-27 03:32 46.21927 7.32664 1581 ft 56 kts 253°
2026-04-27 03:32 46.21848 7.32297 1581 ft 35 kts 253°
2026-04-27 03:32 46.21807 7.32097 1580 ft 13 kts 253°
2026-04-27 03:32 46.21781 7.31973 1580 ft 13 kts 252°
2026-04-27 03:33 46.21751 7.31843 1579 ft 16 kts 252°
2026-04-27 03:33 46.21729 7.31736 1578 ft 17 kts 253°
2026-04-27 03:33 46.21693 7.31558 1576 ft 20 kts 253°
2026-04-27 03:33 46.21625 7.31491 1576 ft 13 kts 155°
2026-04-27 03:34 46.21622 7.31637 1578 ft 12 kts 70°
2026-04-27 03:34 46.21640 7.31719 1578 ft 14 kts 74°
2026-04-27 03:34 46.21672 7.31868 1579 ft 17 kts 72°
2026-04-27 03:34 46.21707 7.32024 1580 ft 16 kts 71°
2026-04-27 03:35 46.21740 7.32179 1580 ft 16 kts 73°
2026-04-27 03:35 46.21771 7.32334 1581 ft 16 kts 74°
2026-04-27 03:35 46.21806 7.32489 1581 ft 14 kts 71°
2026-04-27 03:35 46.21810 7.32506 1581 ft 0 kts 71°
2026-04-27 03:36 46.21811 7.32509 1581 ft 1 kts 71°
2026-04-27 03:36 46.21813 7.32519 1581 ft 1 kts 71°
2026-04-27 03:36 46.21821 7.32555 1581 ft 7 kts 72°
2026-04-27 03:37 46.21836 7.32624 1581 ft 7 kts 72°
2026-04-27 03:37 46.21852 7.32699 1581 ft 9 kts 72°
2026-04-27 03:37 46.21872 7.32798 1581 ft 11 kts 74°
2026-04-27 03:37 46.21894 7.32899 1582 ft 11 kts 72°
2026-04-27 03:38 46.21917 7.33010 1582 ft 12 kts 73°
2026-04-27 03:38 46.21942 7.33127 1582 ft 12 kts 73°
2026-04-27 03:38 46.21968 7.33246 1583 ft 13 kts 73°
2026-04-27 03:38 46.21994 7.33369 1583 ft 13 kts 73°
2026-04-27 03:39 46.22021 7.33497 1583 ft 13 kts 73°
2026-04-27 03:39 46.22048 7.33624 1584 ft 12 kts 73°
2026-04-27 03:39 46.22033 7.33670 1584 ft 5 kts 140°
2026-04-27 03:39 46.22018 7.33685 1584 ft 0 kts 143°